User: anonymous   Login
Location: Caltech
(34.1382°N, 118.1253°W)
Time: 16:26:12
(UTC-07:00)
Language:

NOSS 3-4 (C) - Orbit

View from above orbital plane
View from above orbital plane
View from above satellite
View from above satellite

Ground track
Ground track

The orbit data is extracted from the following two-line orbital elements,

1 31708U 07027C   15246.08198442 0.00000000  00000-0  00000-0 0    02
2 31708  63.4030 308.1607 0133000  33.3641 326.6359 13.40687180    01
Epoch (UTC): 03 September 2015 01:58:03
Eccentricity: 0.0133000
inclination: 63.4030°
perigee height: 1007 km
apogee height: 1206 km
right ascension of ascending node: 308.1607°
argument of perigee: 33.3641°
revolutions per day: 13.40687180
mean anomaly at epoch: 326.6359°
orbit number at epoch: 0

The dashed part of the orbit path shows where the satellite is in the earth's shadow,  

DLR